SL-14 R/B, 17912

Orbit data source: Space-Track

SL-14 R/B, 17912 is space debris in LEO originally from a launch on Mon, 27 Apr 1987 UTC launched from the Plesetsk Missile And Space Complex (PKMTR). Debris objects in space refer to the collection of defunct objects orbiting the Earth. Examples of debris include non-operational satellites, rocket bodies, and fragments generated from explosions, collisions, or faulty payload assembly.

Loading next visibility...
Identifier
17912, 1987-038B
Orbit
LEO
Country
Flag of CISCIS
Related business
Manufacturer
Yuzhnoe
Mission
Spacecraft
Bus & Motor
S5M, Unknown motor
Mass
1,600 kg wet, 1,600 kg dry
Launch date (UTC)
1987-04-27 (39 years ago)
Launch vehicle
Unknown
Launch site
Plesetsk Missile And Space Complex (PKMTR)
Object type
Payload
Rocket body
Debris
Shape & HBR
Cyl, 1.4 m
Radar Cross Section
7.351 m², Large (>1 m²)

Expand to show TLE details & history
Last TLE update: 2 days ago

TLE from 2 days ago
0 SL-14 R/B
1 17912U 87038B   26171.36226936  .00000252  00000-0  26370-4 0  9991
2 17912  82.5005 200.0816 0019181 180.5956 179.5241 14.85446646 94474
Epoch: 2026-06-20T08:41Z
TLE epoch observation values (Epoch: 2026-06-20T08:41:40.072Z)
Latitude
-0.00002°
Longitude
161.08665°
Altitude
628.635 km
Speed
7.537 km/s
True Right ascension
13h 20m 19s
True Declination
0° 00' 00"
Sunlit
Object was in daylight at epoch
Visualization orbit readout
Latitude
Unknown
Longitude
Unknown
Altitude
Unknown
Speed
Unknown
Apparent Right ascension
Unknown
Apparent Declination
Unknown
Sunlit
N/A
Visualization observer readout
Local Sidereal Time
23:09:04
Azimuth
Unknown
Elevation
Unknown
Doppler factor
Unknown
Orbital elements
Apogee altitude
622.603 km
Perigee altitude
595.798 km
Semi-major axis
6,987.337 km
Eccentricity
0.00192
Inclination
82.5005°
RAAN
200.0816°
Arg. of periapsis
180.5956°
True anomaly
179.52592°
Mean anomaly
179.5241°
Eccentric anomaly
179.52501°
Mean motion
3.716 °/min
Orbital period
96.88 mins
BSTAR
0.00002637
Loading maneuver chart data...
Computing Atmospheric mass density...
Loading historical data...
Loading historical data...
Loading historical data...
Loading historical data...
Loading historical data...
Loading historical data...
Loading historical data...
Other satellites on launch #38 in the year 1987 (1987-04-27 UTC)

Documentation

Showing up to 5 results
|